Weather History for KLMT - May, 2014

Change the Weather History Date:

Thursday, May 29, 2014

  Actual Average Record
Temperature  
Mean Temperature 49 °F 54 °F  
Max Temperature 71 °F 69 °F 93 °F (1986)
Min Temperature 27 °F 39 °F 27 °F (2014)
Degree Days  
Heating Degree Days 16 11  
Month to date heating degree days 345 416  
Since 1 July heating degree days 6432 6735  
Cooling Degree Days 0 0  
Month to date cooling degree days 0 0  
Year to date cooling degree days 0 0  
Moisture  
Dew Point 27 °F    
Average Humidity 47    
Maximum Humidity 92    
Minimum Humidity 15    
Precipitation  
Precipitation 0.00 in 0.02 in 0.52 in (2008)
Month to date precipitation 1.25 1.36  
Year to date precipitation 6.04 7.77  
Sea Level Pressure  
Sea Level Pressure 30.07 in    
Wind  
Wind Speed 5 mph (NNE)    
Max Wind Speed 14 mph    
Max Gust Speed 18 mph    
Visibility 10 miles    
Events      
T = Trace of Precipitation, MM = Missing Value Source: NWS Daily Summary

Daily Weather History Graph

Daily Weather History Graph

Search for Another Location

Airport or City:

Trip Planner

Search our weather history database for the weather conditions in past years. The results will help you decide how hot, cold, wet, or windy it might be!

Date:

Astronomy

May. 29, 2014 Rise Set
Actual Time 5:34 AM PDT 8:34 PM PDT
Civil Twilight 5:01 AM PDT 9:07 PM PDT
Nautical Twilight 4:18 AM PDT 9:50 PM PDT
Astronomical Twilight 3:28 AM PDT 10:40 PM PDT
Moon 6:33 AM PDT (5/29) 9:27 PM PDT (5/29)
Length of Visible Light 16h 06m
Length of Day
14h 59m
New Moon, 1% of the Moon is Illuminated
May 29
New Moon
Jun 5
First Quarter
Jun 12
Full
Jun 19
Last Quarter
Jun 27
New

Hourly Weather History & Observations

Time (PDT) Temp. Windchill Dew Point Humidity Pressure Visibility Wind Dir Wind Speed Gust Speed Precip Events Conditions
2:53 AM 32.0 °F 27.5 °F 27.0 °F 82% 30.18 in 10.0 mi ENE 4.6 mph - N/A   Clear
3:53 AM 30.0 °F 26.5 °F 26.1 °F 85% 30.17 in 10.0 mi NNW 3.5 mph - N/A   Clear
4:53 AM 30.9 °F - 27.0 °F 85% 30.18 in 10.0 mi Calm Calm - N/A   Clear
5:53 AM 28.9 °F 23.9 °F 26.1 °F 89% 30.17 in 10.0 mi ENE 4.6 mph - N/A   Clear
6:53 AM 37.0 °F - 30.9 °F 79% 30.17 in 10.0 mi Calm Calm - N/A   Clear
7:53 AM 44.1 °F 42.5 °F 32.0 °F 63% 30.15 in 6.0 mi NNE 3.5 mph - N/A   Haze
8:53 AM 48.9 °F - 30.9 °F 50% 30.13 in 10.0 mi Variable 3.5 mph - N/A   Clear
9:53 AM 53.1 °F - 30.9 °F 43% 30.13 in 10.0 mi ENE 8.1 mph - N/A   Clear
10:16 AM 54.0 °F - 30.0 °F 40% 30.15 in 10.0 mi Variable 4.6 mph - N/A   Partly Cloudy
10:53 AM 55.0 °F - 28.0 °F 35% 30.11 in 10.0 mi Variable 3.5 mph - N/A   Clear
11:53 AM 60.1 °F - 24.1 °F 25% 30.09 in 10.0 mi ENE 9.2 mph - N/A   Clear
12:53 PM 61.0 °F - 28.9 °F 30% 30.08 in 10.0 mi SSW 4.6 mph - N/A   Clear
3:53 PM 66.9 °F - 25.0 °F 21% 30.03 in 10.0 mi Variable 3.5 mph - N/A   Clear
4:53 PM 70.0 °F - 23.0 °F 17% 30.00 in 10.0 mi Variable 4.6 mph - N/A   Clear
5:53 PM 70.0 °F - 19.0 °F 14% 29.98 in 10.0 mi North 4.6 mph - N/A   Clear
6:53 PM 69.1 °F - 23.0 °F 18% 29.95 in 10.0 mi NNW 13.8 mph - N/A   Clear
7:53 PM 64.9 °F - 27.0 °F 24% 29.94 in 10.0 mi NNW 10.4 mph - N/A   Clear
8:53 PM 57.0 °F - 30.9 °F 37% 29.95 in 10.0 mi NNW 9.2 mph - N/A   Clear
9:53 PM 52.0 °F - 27.0 °F 38% 29.96 in 10.0 mi NE 3.5 mph - N/A   Clear
10:53 PM 46.9 °F - 30.0 °F 52% 29.98 in 10.0 mi NE 5.8 mph - N/A   Clear
11:53 PM 46.0 °F 44.8 °F 28.0 °F 50% 29.96 in 10.0 mi West 3.5 mph - N/A   Clear